| time (UTC) | temp F | wind direction | speed knots | gust knots | rain 1hr in | rain 24hr in | rain mn in | humidity % | barometer mb |
| 20260507080218 | 53 | 101 | 4.3 | 10.4 | 0.00 | 0.00 | 0.00 | 75 | 1016.2 |
| 20260507080019 | 53 | 100 | 5.2 | 9.6 | 0.00 | 0.00 | 0.00 | 75 | 1015.9 |
| 20260507075718 | 54 | 88 | 5.2 | 7.8 | 0.00 | 0.00 | 0.00 | 76 | 1016.2 |
| 20260507075218 | 53 | 82 | 4.3 | 7.0 | 0.00 | 0.00 | 0.00 | 77 | 1016.2 |
| 20260507075019 | 53 | 85 | 4.3 | 7.0 | 0.00 | 0.00 | 0.00 | 77 | 1015.9 |
| 20260507074718 | 53 | 98 | 5.2 | 7.8 | 0.00 | 0.00 | 0.00 | 76 | 1016.1 |
| 20260507074219 | 53 | 74 | 3.5 | 7.8 | 0.00 | 0.00 | 0.00 | 77 | 1016.1 |
| 20260507074019 | 53 | 68 | 3.5 | 6.1 | 0.00 | 0.00 | 0.00 | 76 | 1015.8 |
| 20260507073718 | 53 | 69 | 3.5 | 7.8 | 0.00 | 0.00 | 0.00 | 77 | 1016.1 |
| 20260507073219 | 53 | 63 | 5.2 | 7.8 | 0.00 | 0.00 | 0.00 | 78 | 1016.1 |
| 20260507073019 | 53 | 69 | 4.3 | 7.0 | 0.00 | 0.00 | 0.00 | 77 | 1015.9 |
| 20260506210218 | 51 | 55 | 0.0 | 0.0 | 0.00 | 0.00 | 0.00 | 74 | 1012.7 |
| 20260506210018 | 51 | 0 | 0.0 | 0.0 | 0.00 | 0.00 | 0.00 | 74 | 1012.3 |
| 20260506205219 | 51 | 55 | 0.0 | 0.0 | 0.00 | 0.00 | 0.00 | 74 | 1012.6 |
| 20260506205018 | 51 | 0 | 0.0 | 0.0 | 0.00 | 0.00 | 0.00 | 74 | 1012.3 |
| 20260506204719 | 51 | 55 | 0.0 | 0.0 | 0.00 | 0.00 | 0.00 | 74 | 1012.6 |
| 20260506204018 | 51 | 0 | 0.0 | 0.0 | 0.00 | 0.00 | 0.00 | 74 | 1012.2 |
| 20260506203718 | 51 | 55 | 0.0 | 0.0 | 0.00 | 0.00 | 0.00 | 74 | 1012.5 |
| 20260506200219 | 52 | 55 | 0.0 | 0.0 | 0.00 | 0.00 | 0.00 | 71 | 1012.4 |
| 20260506200019 | 52 | 0 | 0.0 | 0.0 | 0.00 | 0.00 | 0.00 | 71 | 1012.0 |
| 20260506195718 | 52 | 55 | 0.0 | 0.0 | 0.00 | 0.00 | 0.00 | 70 | 1012.3 |
| 20260506195219 | 52 | 55 | 0.0 | 0.0 | 0.00 | 0.00 | 0.00 | 70 | 1012.3 |
| 20260506195019 | 52 | 0 | 0.0 | 0.0 | 0.00 | 0.00 | 0.00 | 70 | 1012.0 |
| 20260506194718 | 52 | 55 | 0.0 | 0.0 | 0.00 | 0.00 | 0.00 | 70 | 1012.2 |
| 20260506194219 | 52 | 55 | 0.0 | 0.0 | 0.00 | 0.00 | 0.00 | 69 | 1012.1 |
| 20260506194020 | 52 | 0 | 0.0 | 0.0 | 0.00 | 0.00 | 0.00 | 69 | 1011.8 |
| 20260506193718 | 52 | 55 | 0.0 | 0.0 | 0.00 | 0.00 | 0.00 | 69 | 1012.1 |
| 20260506191021 | 53 | 0 | 0.0 | 0.0 | 0.00 | 0.00 | 0.00 | 67 | 1011.6 |
| 20260506190721 | 54 | 55 | 0.0 | 0.0 | 0.00 | 0.00 | 0.00 | 66 | 1011.9 |
| 20260506190021 | 54 | 56 | 1.7 | 3.5 | 0.00 | 0.00 | 0.00 | 66 | 1011.4 |
| 20260506185721 | 54 | 55 | 1.7 | 4.3 | 0.00 | 0.00 | 0.00 | 66 | 1011.7 |
| 20260506185022 | 54 | 56 | 2.6 | 4.3 | 0.00 | 0.00 | 0.00 | 65 | 1011.3 |
| 20260506184721 | 55 | 55 | 2.6 | 4.3 | 0.00 | 0.00 | 0.00 | 65 | 1011.6 |
| 20260506184221 | 55 | 55 | 1.7 | 5.2 | 0.00 | 0.00 | 0.00 | 65 | 1011.5 |
| 20260506184022 | 55 | 55 | 1.7 | 5.2 | 0.00 | 0.00 | 0.00 | 65 | 1011.2 |
| 20260506183721 | 55 | 55 | 2.6 | 5.2 | 0.00 | 0.00 | 0.00 | 66 | 1011.5 |
| 20260506183221 | 55 | 55 | 4.3 | 7.8 | 0.00 | 0.00 | 0.00 | 67 | 1011.5 |
| 20260506183021 | 55 | 56 | 5.2 | 7.8 | 0.00 | 0.00 | 0.00 | 68 | 1011.2 |
| 20260506181724 | 56 | 15 | 3.5 | 6.1 | 0.00 | 0.00 | 0.00 | 72 | 1011.2 |
| 20260506181220 | 56 | 53 | 4.3 | 7.0 | 0.00 | 0.00 | 0.00 | 71 | 1011.1 |
| 20260506180721 | 56 | 54 | 4.3 | 8.7 | 0.00 | 0.00 | 0.00 | 71 | 1011.0 |
| 20260506180221 | 56 | 53 | 5.2 | 7.0 | 0.00 | 0.00 | 0.00 | 70 | 1010.9 |
| 20260506180021 | 56 | 32 | 4.3 | 7.0 | 0.00 | 0.00 | 0.00 | 70 | 1010.5 |
| 20260506175721 | 56 | 349 | 5.2 | 10.4 | 0.00 | 0.00 | 0.00 | 69 | 1010.8 |
| 20260506175221 | 56 | 44 | 4.3 | 7.8 | 0.00 | 0.00 | 0.00 | 69 | 1010.8 |
| 20260506175021 | 57 | 16 | 4.3 | 7.8 | 0.00 | 0.00 | 0.00 | 70 | 1010.5 |
| 20260506174721 | 57 | 10 | 5.2 | 11.3 | 0.00 | 0.00 | 0.00 | 70 | 1010.8 |
| 20260506174021 | 56 | 26 | 3.5 | 7.0 | 0.00 | 0.00 | 0.00 | 69 | 1010.4 |
| 20260506173721 | 57 | 55 | 5.2 | 8.7 | 0.00 | 0.00 | 0.00 | 69 | 1010.7 |
| 20260506173221 | 57 | 20 | 4.3 | 7.8 | 0.00 | 0.00 | 0.00 | 68 | 1010.6 |
| 20260506173021 | 57 | 54 | 4.3 | 7.8 | 0.00 | 0.00 | 0.00 | 69 | 1010.3 |
| 20260506172221 | 57 | 2 | 4.3 | 10.4 | 0.00 | 0.00 | 0.00 | 70 | 1010.6 |
| 20260506172021 | 57 | 5 | 4.3 | 8.7 | 0.00 | 0.00 | 0.00 | 70 | 1010.3 |
| 20260506171720 | 57 | 21 | 2.6 | 12.2 | 0.00 | 0.00 | 0.00 | 70 | 1010.5 |
| 20260506171221 | 56 | 1 | 5.2 | 11.3 | 0.00 | 0.00 | 0.00 | 70 | 1010.5 |
| 20260506171021 | 56 | 1 | 5.2 | 11.3 | 0.00 | 0.00 | 0.00 | 70 | 1010.2 |
| 20260506170721 | 56 | 11 | 5.2 | 10.4 | 0.00 | 0.00 | 0.00 | 70 | 1010.4 |
| 20260506165720 | 57 | 8 | 4.3 | 10.4 | 0.00 | 0.00 | 0.00 | 69 | 1010.5 |
| 20260506165021 | 57 | 354 | 6.1 | 10.4 | 0.00 | 0.00 | 0.00 | 69 | 1010.1 |
| 20260506164720 | 57 | 37 | 2.6 | 6.1 | 0.00 | 0.00 | 0.00 | 68 | 1010.3 |
| 20260506164221 | 57 | 347 | 4.3 | 8.7 | 0.00 | 0.00 | 0.00 | 68 | 1010.3 |
| 20260506164020 | 57 | 39 | 3.5 | 7.0 | 0.00 | 0.00 | 0.00 | 68 | 1010.0 |
| 20260506163721 | 57 | 28 | 6.1 | 15.6 | 0.00 | 0.00 | 0.00 | 69 | 1010.3 |
| 20260506163021 | 58 | 14 | 4.3 | 13.0 | 0.00 | 0.00 | 0.00 | 69 | 1009.9 |
| 20260506162220 | 58 | 1 | 5.2 | 13.0 | 0.00 | 0.00 | 0.00 | 70 | 1010.2 |
| 20260506161721 | 58 | 351 | 8.7 | 18.2 | 0.00 | 0.00 | 0.00 | 70 | 1010.2 |
| 20260506161221 | 57 | 355 | 6.1 | 13.0 | 0.00 | 0.00 | 0.00 | 70 | 1010.3 |
| 20260506161020 | 57 | 351 | 7.8 | 13.0 | 0.00 | 0.00 | 0.00 | 70 | 1009.9 |
| 20260506160721 | 57 | 356 | 6.1 | 11.3 | 0.00 | 0.00 | 0.00 | 71 | 1010.3 |
| 20260506160221 | 57 | 351 | 6.1 | 13.0 | 0.00 | 0.00 | 0.00 | 69 | 1010.3 |
| 20260506160022 | 58 | 351 | 7.0 | 13.0 | 0.00 | 0.00 | 0.00 | 69 | 1009.9 |
| 20260506155720 | 58 | 5 | 5.2 | 10.4 | 0.00 | 0.00 | 0.00 | 70 | 1010.3 |
| 20260506155221 | 58 | 355 | 5.2 | 10.4 | 0.00 | 0.00 | 0.00 | 71 | 1010.3 |
| 20260506155021 | 58 | 346 | 6.1 | 10.4 | 0.00 | 0.00 | 0.00 | 72 | 1009.9 |
| 20260506154720 | 59 | 12 | 6.1 | 13.0 | 0.00 | 0.00 | 0.00 | 71 | 1010.3 |
| 20260506154221 | 58 | 7 | 6.1 | 12.2 | 0.00 | 0.00 | 0.00 | 70 | 1010.3 |
| 20260506154022 | 58 | 11 | 4.3 | 7.0 | 0.00 | 0.00 | 0.00 | 70 | 1010.0 |
| 20260506153721 | 59 | 2 | 6.1 | 13.0 | 0.00 | 0.00 | 0.00 | 70 | 1010.3 |
| 20260506153221 | 59 | 3 | 5.2 | 10.4 | 0.00 | 0.00 | 0.00 | 70 | 1010.3 |
| 20260506153021 | 59 | 357 | 5.2 | 8.7 | 0.00 | 0.00 | 0.00 | 70 | 1009.9 |
| 20260506152721 | 59 | 351 | 7.8 | 17.4 | 0.00 | 0.00 | 0.00 | 70 | 1010.3 |
| 20260506152221 | 59 | 349 | 6.1 | 13.9 | 0.00 | 0.00 | 0.00 | 72 | 1010.3 |
| 20260506152021 | 59 | 347 | 7.8 | 13.9 | 0.00 | 0.00 | 0.00 | 71 | 1010.0 |
| 20260506151720 | 59 | 343 | 6.1 | 12.2 | 0.00 | 0.00 | 0.00 | 72 | 1010.2 |
| 20260506151221 | 59 | 352 | 7.0 | 12.2 | 0.00 | 0.00 | 0.00 | 71 | 1010.3 |
| 20260506151021 | 59 | 342 | 7.8 | 13.0 | 0.00 | 0.00 | 0.00 | 71 | 1010.0 |
| 20260506150720 | 59 | 342 | 7.0 | 12.2 | 0.00 | 0.00 | 0.00 | 72 | 1010.2 |
| 20260506150220 | 59 | 341 | 5.2 | 13.0 | 0.00 | 0.00 | 0.00 | 70 | 1010.2 |
| 20260506150020 | 59 | 341 | 6.1 | 10.4 | 0.00 | 0.00 | 0.00 | 70 | 1009.9 |
| 20260506145720 | 59 | 339 | 5.2 | 11.3 | 0.00 | 0.00 | 0.00 | 71 | 1010.2 |
| 20260506145221 | 59 | 358 | 6.1 | 12.2 | 0.00 | 0.00 | 0.00 | 68 | 1010.3 |
| 20260506144721 | 59 | 54 | 4.3 | 10.4 | 0.00 | 0.00 | 0.00 | 69 | 1010.2 |
| 20260506144220 | 59 | 9 | 5.2 | 12.2 | 0.00 | 0.00 | 0.00 | 68 | 1010.2 |
| 20260506144021 | 59 | 354 | 7.8 | 12.2 | 0.00 | 0.00 | 0.00 | 69 | 1010.0 |
| 20260506143720 | 59 | 30 | 5.2 | 13.0 | 0.00 | 0.00 | 0.00 | 68 | 1010.2 |
| 20260506143220 | 59 | 27 | 7.0 | 12.2 | 0.00 | 0.00 | 0.00 | 71 | 1010.2 |
| 20260506142721 | 59 | 355 | 4.3 | 10.4 | 0.00 | 0.00 | 0.00 | 69 | 1010.1 |
| 20260506142220 | 60 | 344 | 7.0 | 13.0 | 0.00 | 0.00 | 0.00 | 72 | 1010.1 |
| 20260506141720 | 59 | 27 | 5.2 | 12.2 | 0.00 | 0.00 | 0.00 | 70 | 1010.1 |
| 20260506141220 | 59 | 2 | 6.1 | 13.0 | 0.00 | 0.00 | 0.00 | 70 | 1010.2 |
| 20260506141021 | 59 | 7 | 7.0 | 11.3 | 0.00 | 0.00 | 0.00 | 69 | 1009.8 |
| 20260506140220 | 59 | 357 | 7.0 | 13.9 | 0.00 | 0.00 | 0.00 | 71 | 1010.3 |
| 20260506135221 | 59 | 337 | 6.1 | 11.3 | 0.00 | 0.00 | 0.00 | 71 | 1010.2 |
| 20260506135021 | 59 | 15 | 6.1 | 10.4 | 0.00 | 0.00 | 0.00 | 70 | 1009.9 |
| 20260506134720 | 59 | 354 | 6.1 | 12.2 | 0.00 | 0.00 | 0.00 | 73 | 1010.2 |
| 20260506134220 | 59 | 353 | 5.2 | 12.2 | 0.00 | 0.00 | 0.00 | 72 | 1010.2 |
| 20260506134020 | 59 | 1 | 5.2 | 10.4 | 0.00 | 0.00 | 0.00 | 70 | 1009.9 |
| 20260506133720 | 59 | 345 | 7.0 | 10.4 | 0.00 | 0.00 | 0.00 | 72 | 1010.3 |
| 20260506133220 | 58 | 357 | 5.2 | 10.4 | 0.00 | 0.00 | 0.00 | 71 | 1010.3 |
| 20260506133020 | 59 | 356 | 3.5 | 6.1 | 0.00 | 0.00 | 0.00 | 73 | 1010.0 |
| 20260506132720 | 59 | 352 | 5.2 | 10.4 | 0.00 | 0.00 | 0.00 | 73 | 1010.3 |
| 20260506132221 | 59 | 338 | 7.8 | 12.2 | 0.00 | 0.00 | 0.00 | 70 | 1010.3 |
| 20260506132020 | 59 | 346 | 7.8 | 12.2 | 0.00 | 0.00 | 0.00 | 73 | 1009.9 |
| 20260506131721 | 59 | 8 | 5.2 | 8.7 | 0.00 | 0.00 | 0.00 | 72 | 1010.3 |
| 20260506131221 | 59 | 45 | 4.3 | 11.3 | 0.00 | 0.00 | 0.00 | 71 | 1010.2 |
| 20260506131020 | 59 | 341 | 5.2 | 11.3 | 0.00 | 0.00 | 0.00 | 72 | 1009.9 |
| 20260506130721 | 59 | 354 | 7.0 | 12.2 | 0.00 | 0.00 | 0.00 | 74 | 1010.2 |
| 20260506130220 | 58 | 327 | 7.8 | 15.6 | 0.00 | 0.00 | 0.00 | 73 | 1010.1 |
| 20260506130020 | 58 | 1 | 7.8 | 15.6 | 0.00 | 0.00 | 0.00 | 73 | 1009.9 |
| 20260506125720 | 58 | 353 | 7.8 | 13.9 | 0.00 | 0.00 | 0.00 | 74 | 1010.2 |
| 20260506125220 | 58 | 355 | 5.2 | 11.3 | 0.00 | 0.00 | 0.00 | 73 | 1010.1 |
| 20260506125020 | 58 | 7 | 5.2 | 13.0 | 0.00 | 0.00 | 0.00 | 74 | 1009.8 |
| 20260506124720 | 58 | 358 | 6.1 | 13.0 | 0.00 | 0.00 | 0.00 | 72 | 1010.0 |
| 20260506124220 | 58 | 326 | 6.1 | 13.0 | 0.00 | 0.00 | 0.00 | 76 | 1010.0 |
| 20260506124020 | 58 | 1 | 5.2 | 7.8 | 0.00 | 0.00 | 0.00 | 74 | 1009.8 |
| 20260506123720 | 58 | 3 | 6.1 | 11.3 | 0.00 | 0.00 | 0.00 | 74 | 1010.0 |
| 20260506123220 | 58 | 357 | 6.1 | 13.0 | 0.00 | 0.00 | 0.00 | 74 | 1010.1 |
| 20260506123020 | 58 | 349 | 7.0 | 13.0 | 0.00 | 0.00 | 0.00 | 74 | 1009.8 |
| 20260506122720 | 58 | 6 | 5.2 | 11.3 | 0.00 | 0.00 | 0.00 | 75 | 1010.1 |
| 20260506122220 | 58 | 9 | 7.8 | 13.0 | 0.00 | 0.00 | 0.00 | 75 | 1010.1 |
| 20260506122020 | 58 | 345 | 7.0 | 13.0 | 0.00 | 0.00 | 0.00 | 75 | 1009.8 |
| 20260506121720 | 58 | 342 | 7.0 | 12.2 | 0.00 | 0.00 | 0.00 | 76 | 1010.1 |
| 20260506121220 | 58 | 348 | 5.2 | 10.4 | 0.00 | 0.00 | 0.00 | 76 | 1010.1 |
| 20260506121021 | 57 | 348 | 7.0 | 10.4 | 0.00 | 0.00 | 0.00 | 75 | 1009.7 |
| 20260506120220 | 57 | 15 | 4.3 | 11.3 | 0.00 | 0.00 | 0.00 | 75 | 1010.0 |
| 20260506120021 | 57 | 356 | 6.1 | 10.4 | 0.00 | 0.00 | 0.00 | 76 | 1009.7 |
| 20260506115720 | 57 | 357 | 7.8 | 12.2 | 0.00 | 0.00 | 0.00 | 76 | 1010.0 |
| 20260506115220 | 57 | 336 | 7.8 | 13.0 | 0.00 | 0.00 | 0.00 | 75 | 1010.0 |
| 20260506115021 | 57 | 344 | 7.0 | 13.0 | 0.00 | 0.00 | 0.00 | 75 | 1009.7 |
| 20260506114720 | 57 | 4 | 7.0 | 10.4 | 0.00 | 0.00 | 0.00 | 75 | 1009.9 |
| 20260506114219 | 58 | 355 | 7.8 | 13.0 | 0.00 | 0.00 | 0.00 | 75 | 1009.9 |
| 20260506113720 | 58 | 351 | 5.2 | 12.2 | 0.00 | 0.00 | 0.00 | 73 | 1009.9 |
| 20260506112720 | 58 | 334 | 7.8 | 13.9 | 0.00 | 0.00 | 0.00 | 73 | 1009.9 |
| 20260506112020 | 59 | 346 | 7.8 | 15.6 | 0.00 | 0.00 | 0.00 | 75 | 1009.6 |
| 20260506111720 | 58 | 8 | 6.1 | 10.4 | 0.00 | 0.00 | 0.00 | 75 | 1009.9 |
| 20260506111220 | 58 | 355 | 4.3 | 13.0 | 0.00 | 0.00 | 0.00 | 76 | 1009.8 |
| 20260506111021 | 57 | 351 | 6.1 | 10.4 | 0.00 | 0.00 | 0.00 | 76 | 1009.5 |
| 20260506110220 | 56 | 10 | 7.8 | 13.9 | 0.00 | 0.00 | 0.00 | 76 | 1009.9 |
| 20260506105720 | 57 | 349 | 6.1 | 11.3 | 0.00 | 0.00 | 0.00 | 77 | 1010.0 |
| 20260506105220 | 56 | 359 | 6.1 | 12.2 | 0.00 | 0.00 | 0.00 | 77 | 1010.0 |
| 20260506105021 | 56 | 350 | 8.7 | 13.9 | 0.00 | 0.00 | 0.00 | 77 | 1009.7 |
| 20260506104020 | 56 | 16 | 5.2 | 10.4 | 0.00 | 0.00 | 0.00 | 76 | 1009.7 |
| 20260506103220 | 57 | 348 | 6.1 | 13.9 | 0.00 | 0.00 | 0.00 | 76 | 1009.9 |
| 20260506103020 | 57 | 357 | 5.2 | 12.2 | 0.00 | 0.00 | 0.00 | 77 | 1009.6 |
| 20260506101720 | 56 | 332 | 7.8 | 12.2 | 0.00 | 0.00 | 0.00 | 77 | 1009.9 |
| 20260506101020 | 56 | 355 | 6.1 | 9.6 | 0.00 | 0.00 | 0.00 | 78 | 1009.6 |
| 20260506100719 | 56 | 338 | 4.3 | 10.4 | 0.00 | 0.00 | 0.00 | 77 | 1009.8 |
| 20260506100219 | 56 | 349 | 5.2 | 12.2 | 0.00 | 0.00 | 0.00 | 78 | 1009.8 |
| 20260506100020 | 55 | 351 | 6.1 | 12.2 | 0.00 | 0.00 | 0.00 | 77 | 1009.5 |
| 20260506095720 | 56 | 356 | 7.8 | 13.9 | 0.00 | 0.00 | 0.00 | 78 | 1009.8 |
| 20260506095020 | 56 | 5 | 7.0 | 13.0 | 0.00 | 0.00 | 0.00 | 78 | 1009.5 |
| 20260506094220 | 55 | 359 | 7.0 | 11.3 | 0.00 | 0.00 | 0.00 | 78 | 1009.7 |
| 20260506094020 | 55 | 348 | 6.1 | 12.2 | 0.00 | 0.00 | 0.00 | 78 | 1009.5 |
| 20260506093720 | 55 | 351 | 6.1 | 11.3 | 0.00 | 0.00 | 0.00 | 78 | 1009.8 |